timestamp,surface_pressure_avg,surface_temp_avg,battery_voltage,lat,long
2020-09-24 00:09:01+00:00,235.0631,14.9,12.81,47.84626,-54.09684
2020-09-24 00:19:01+00:00,235.9981,14.9,12.81,47.84626,-54.09684
2020-09-24 00:29:01+00:00,238.5031,14.9,12.81,47.84626,-54.09684
2020-09-24 00:39:01+00:00,240.9247,14.9,12.81,47.84626,-54.09684
2020-09-24 00:49:01+00:00,241.3497,14.9,12.81,47.84626,-54.09684
2020-09-24 00:59:01+00:00,238.8398,14.9,12.81,47.84626,-54.09684
2020-09-24 01:09:01+00:00,241.1131,14.9,12.81,47.84626,-54.09684
2020-09-24 01:19:01+00:00,247.5097,14.9,12.81,47.84626,-54.09684
2020-09-24 01:29:01+00:00,250.5064,14.9,12.81,47.84626,-54.09684
2020-09-24 01:39:01+00:00,249.3414,14.9,12.81,47.84626,-54.09684
2020-09-24 01:49:01+00:00,254.5397,14.9,12.81,47.84626,-54.09684
2020-09-24 01:59:01+00:00,264.3231,14.9,12.81,47.84626,-54.09684
2020-09-24 02:09:01+00:00,268.993,14.9,12.81,47.84626,-54.09684
2020-09-24 02:19:01+00:00,270.1981,14.9,12.73,47.84626,-54.09684
2020-09-24 02:29:01+00:00,277.9031,14.9,12.73,47.84626,-54.09684
2020-09-24 02:39:01+00:00,286.83299999999997,14.9,12.73,47.84626,-54.09684
2020-09-24 02:49:01+00:00,292.7663,14.9,12.73,47.84626,-54.09684
2020-09-24 02:59:01+00:00,296.6981,14.9,12.73,47.84626,-54.09684
2020-09-24 03:09:01+00:00,302.673,14.93,12.73,47.84626,-54.09684
2020-09-24 03:19:01+00:00,309.8113,14.94,12.73,47.84626,-54.09684
2020-09-24 03:29:01+00:00,311.9729,14.97,12.73,47.84626,-54.09684
2020-09-24 03:39:01+00:00,313.9846,15.0,12.73,47.84626,-54.09684
2020-09-24 03:49:01+00:00,318.8881,15.0,12.73,47.84626,-54.09684
2020-09-24 03:59:01+00:00,324.5147,15.0,12.73,47.84626,-54.09684
2020-09-24 04:09:01+00:00,324.0163,15.0,12.73,47.84626,-54.09684
2020-09-24 04:19:01+00:00,322.783,15.0,12.73,47.84626,-54.09684
2020-09-24 04:29:01+00:00,329.5529,15.0,12.73,47.84626,-54.09684
2020-09-24 04:39:01+00:00,332.0229,15.0,12.73,47.84626,-54.09684
2020-09-24 04:49:01+00:00,333.1112,15.0,12.73,47.84626,-54.09684
2020-09-24 04:59:01+00:00,332.4314,15.0,12.73,47.84626,-54.09684
2020-09-24 05:09:01+00:00,332.6280000000001,14.99,12.73,47.84626,-54.09684
2020-09-24 05:19:01+00:00,333.3547,14.99,12.73,47.84626,-54.09684
2020-09-24 05:29:01+00:00,333.7513,14.98,12.73,47.84626,-54.09684
2020-09-24 05:39:01+00:00,335.3663,14.98,12.73,47.84626,-54.09684
2020-09-24 05:49:01+00:00,334.1564,14.97,12.73,47.84626,-54.09684
2020-09-24 05:59:01+00:00,333.5264,14.97,12.73,47.84626,-54.09684
2020-09-24 06:09:01+00:00,335.0513,14.97,12.73,47.84626,-54.09684
2020-09-24 06:19:01+00:00,332.5079,14.96,12.73,47.84626,-54.09684
2020-09-24 06:29:01+00:00,330.6380000000001,14.95,12.73,47.84626,-54.09684
2020-09-24 06:39:01+00:00,325.373,14.94,12.73,47.84626,-54.09684
2020-09-24 06:49:01+00:00,319.7313,14.95,12.73,47.84626,-54.09684
2020-09-24 06:59:01+00:00,314.7363,14.95,12.73,47.84626,-54.09684
2020-09-24 07:09:01+00:00,307.3813,14.95,12.73,47.84626,-54.09684
2020-09-24 07:19:01+00:00,299.6497,14.95,12.73,47.84626,-54.09684
2020-09-24 07:29:01+00:00,292.7314,14.96,12.73,47.84626,-54.09684
2020-09-24 07:39:01+00:00,284.1213,14.98,12.73,47.84626,-54.09684
2020-09-24 07:49:01+00:00,273.7181,14.99,12.73,47.84626,-54.09684
2020-09-24 07:59:01+00:00,266.688,14.99,12.73,47.84626,-54.09684
2020-09-24 08:09:01+00:00,262.4581,15.0,12.73,47.84626,-54.09684
2020-09-24 08:19:01+00:00,254.8548,15.0,12.73,47.84626,-54.09684
2020-09-24 08:29:01+00:00,247.8831,15.0,12.73,47.84626,-54.09684
2020-09-24 08:39:01+00:00,242.9647,15.0,12.73,47.84626,-54.09684
2020-09-24 08:49:01+00:00,236.8047,15.0,12.73,47.84626,-54.09684
2020-09-24 08:59:01+00:00,230.9314,15.0,12.73,47.84626,-54.09684
2020-09-24 09:09:01+00:00,227.7148,15.0,12.73,47.84626,-54.09684
2020-09-24 09:19:01+00:00,225.0298,15.0,12.65,47.84626,-54.09684
2020-09-24 09:29:01+00:00,222.1664,15.0,12.65,47.84626,-54.09684
2020-09-24 09:39:01+00:00,223.6681,15.0,12.65,47.84626,-54.09684
2020-09-24 09:49:01+00:00,225.6231,15.0,12.65,47.84626,-54.09684
2020-09-24 09:59:01+00:00,224.7697,15.0,12.65,47.84626,-54.09684
2020-09-24 10:09:01+00:00,223.9298,15.0,12.65,47.84626,-54.09684
2020-09-24 10:19:01+00:00,225.5381,14.99,12.65,47.84626,-54.09684
2020-09-24 10:29:01+00:00,227.2465,14.99,12.65,47.84626,-54.09684
2020-09-24 10:39:01+00:00,227.3615,14.99,12.65,47.84626,-54.09684
2020-09-24 10:49:01+00:00,228.9331,14.99,12.65,47.84626,-54.09684
2020-09-24 10:59:01+00:00,229.8697,14.99,12.65,47.84626,-54.09684
2020-09-24 11:09:01+00:00,228.2198,15.0,12.65,47.84626,-54.09684
2020-09-24 11:19:01+00:00,231.6681,14.99,12.65,47.84626,-54.09684
2020-09-24 11:29:01+00:00,236.3298,14.99,12.65,47.84626,-54.09684
2020-09-24 11:39:01+00:00,237.5364,14.99,12.65,47.84626,-54.09684
2020-09-24 11:49:01+00:00,238.1698,14.99,12.65,47.84626,-54.09684
2020-09-24 11:59:01+00:00,241.7814,14.99,12.65,47.84626,-54.09684
2020-09-24 12:09:01+00:00,243.523,15.0,12.65,47.84626,-54.09684
2020-09-24 12:19:01+00:00,242.4381,15.0,12.73,47.84626,-54.09684
2020-09-24 12:29:01+00:00,243.4248,15.0,12.73,47.84626,-54.09684
2020-09-24 12:39:01+00:00,244.9981,15.0,12.73,47.84626,-54.09684
2020-09-24 12:49:01+00:00,246.3331,15.0,12.73,47.84626,-54.09684
2020-09-24 12:59:01+00:00,247.5664,15.0,12.73,47.84626,-54.09684
2020-09-24 13:09:01+00:00,249.8997,15.0,12.73,47.84626,-54.09684
2020-09-24 13:19:01+00:00,253.0214,15.0,13.29,47.84626,-54.09684
2020-09-24 13:29:01+00:00,258.7231,15.0,13.29,47.84626,-54.09684
2020-09-24 13:39:01+00:00,263.0998,15.0,13.29,47.84626,-54.09684
2020-09-24 13:49:01+00:00,266.1597,15.0,13.29,47.84626,-54.09684
2020-09-24 13:59:01+00:00,267.5447,15.0,13.29,47.84626,-54.09684
2020-09-24 14:09:01+00:00,271.0731,15.0,13.29,47.84626,-54.09684
2020-09-24 14:19:01+00:00,275.423,15.0,14.24,47.84626,-54.09684
2020-09-24 14:29:01+00:00,279.728,15.0,14.24,47.84626,-54.09684
2020-09-24 14:39:01+00:00,284.803,14.9,14.24,47.84626,-54.09684
2020-09-24 14:49:01+00:00,292.2814,14.91,14.24,47.84626,-54.09684
2020-09-24 14:59:01+00:00,301.0497,14.99,14.24,47.84626,-54.09684
2020-09-24 15:09:01+00:00,306.6063,15.0,14.24,47.84626,-54.09684
2020-09-24 15:19:01+00:00,313.8097,15.0,14.48,47.84626,-54.09684
2020-09-24 15:29:01+00:00,322.7664,15.0,14.48,47.84626,-54.09684
2020-09-24 15:39:01+00:00,329.5129,15.0,14.48,47.84626,-54.09684
2020-09-24 15:49:01+00:00,331.4297,15.0,14.48,47.84626,-54.09684
2020-09-24 15:59:01+00:00,336.7113,15.0,14.48,47.84626,-54.09684
2020-09-24 16:09:01+00:00,343.3313,15.0,14.48,47.84626,-54.09684
2020-09-24 16:19:01+00:00,342.1746,15.0,14.48,47.84626,-54.09684
2020-09-24 16:29:01+00:00,341.2530000000001,15.0,14.48,47.84626,-54.09684
2020-09-24 16:39:01+00:00,345.1979,15.0,14.48,47.84626,-54.09684
2020-09-24 16:49:01+00:00,347.3163,14.99,14.48,47.84626,-54.09684
2020-09-24 16:59:01+00:00,347.5912,15.0,14.48,47.84626,-54.09684
2020-09-24 17:09:01+00:00,350.9696,15.0,14.48,47.84626,-54.09684
2020-09-24 17:19:01+00:00,351.4846,14.9,14.32,47.84626,-54.09684
2020-09-24 17:29:01+00:00,347.1312,14.9,14.32,47.84626,-54.09684
2020-09-24 17:39:01+00:00,349.7346,14.9,14.32,47.84626,-54.09684
2020-09-24 17:49:01+00:00,353.0646,14.95,14.32,47.84626,-54.09684
2020-09-24 17:59:01+00:00,348.3697,14.99,14.32,47.84626,-54.09684
2020-09-24 18:09:01+00:00,347.0663,15.0,14.32,47.84626,-54.09684
2020-09-24 18:19:01+00:00,351.0946,15.0,14.16,47.84626,-54.09684
2020-09-24 18:29:01+00:00,348.49800000000016,15.0,14.16,47.84626,-54.09684
2020-09-24 18:39:01+00:00,343.413,15.07,14.16,47.84626,-54.09684
2020-09-24 18:49:01+00:00,346.1013,15.1,14.16,47.84626,-54.09684
2020-09-24 18:59:01+00:00,344.8264,15.1,14.16,47.84626,-54.09684
2020-09-24 19:09:01+00:00,334.8979,15.1,14.16,47.84626,-54.09684
2020-09-24 19:19:01+00:00,330.9496,15.1,13.84,47.84626,-54.09684
2020-09-24 19:29:01+00:00,330.8214,15.1,13.84,47.84626,-54.09684
2020-09-24 19:39:01+00:00,319.393,15.22,13.84,47.84626,-54.09684
2020-09-24 19:49:01+00:00,309.833,15.3,13.84,47.84626,-54.09684
2020-09-24 19:59:01+00:00,310.6463,15.3,13.84,47.84626,-54.09684
2020-09-24 20:09:01+00:00,306.2531,15.3,13.84,47.84626,-54.09684
2020-09-24 20:19:01+00:00,292.2347,15.38,13.6,47.84626,-54.09684
2020-09-24 20:29:01+00:00,288.0681,15.4,13.6,47.84626,-54.09684
2020-09-24 20:39:01+00:00,289.5564,15.4,13.6,47.84626,-54.09684
2020-09-24 20:49:01+00:00,280.2631,15.44,13.6,47.84626,-54.09684
2020-09-24 20:59:01+00:00,269.0881,15.49,13.6,47.84626,-54.09684
2020-09-24 21:09:01+00:00,268.8581,15.49,13.6,47.84626,-54.09684
2020-09-24 21:19:01+00:00,267.7198,15.47,13.29,47.84626,-54.09684
2020-09-24 21:29:01+00:00,256.788,15.45,13.29,47.84626,-54.09684
2020-09-24 21:39:01+00:00,252.1081,15.4,13.29,47.84626,-54.09684
2020-09-24 21:49:01+00:00,256.9631,15.39,13.29,47.84626,-54.09684
2020-09-24 21:59:01+00:00,255.0881,15.3,13.29,47.84626,-54.09684
2020-09-24 22:09:01+00:00,247.3547,15.28,13.29,47.84626,-54.09684
2020-09-24 22:19:01+00:00,248.3997,15.2,12.89,47.84626,-54.09684
2020-09-24 22:29:01+00:00,253.078,15.2,12.89,47.84626,-54.09684
2020-09-24 22:39:01+00:00,251.0397,15.2,12.89,47.84626,-54.09684
2020-09-24 22:49:01+00:00,247.373,15.2,12.89,47.84626,-54.09684
2020-09-24 22:59:01+00:00,249.5714,15.2,12.89,47.84626,-54.09684
2020-09-24 23:09:01+00:00,250.4281,15.2,12.89,47.84626,-54.09684
2020-09-24 23:19:01+00:00,248.4247,15.17,12.81,47.84626,-54.09684
2020-09-24 23:29:01+00:00,249.8198,15.17,12.81,47.84626,-54.09684
2020-09-24 23:39:01+00:00,251.0497,15.1,12.81,47.84626,-54.09684
2020-09-24 23:49:01+00:00,248.8397,15.09,12.81,47.84626,-54.09684
2020-09-24 23:59:01+00:00,246.4681,15.06,12.81,47.84626,-54.09684
